This is the latest recevied weather packets stored in our database for station/object F5TND-14. If no packets are shown the sender has not sent any weather packets the latest 10 day(s).
| Time | Temp. | Humidity | Pressure | Rain* | Wind** | Luminosity | Snow |
|---|---|---|---|---|---|---|---|
| 1787728344 | 21.11° C | 76% | 1014.7 hPa | - | - | - | - |
| 1787727742 | 21.11° C | 76% | 1014.8 hPa | - | - | - | - |
| 1787727141 | 21.11° C | 73% | 1014.9 hPa | - | - | - | - |
| 1787726543 | 23.33° C | 63% | 1014.7 hPa | - | - | - | - |
| 1787725940 | 23.33° C | 57% | 1014.8 hPa | - | - | - | - |
| 1787725341 | 22.78° C | 58% | 1014.7 hPa | - | - | - | - |
| 1787724740 | 22.78° C | 59% | 1014.8 hPa | - | - | - | - |
| 1787724138 | 22.78° C | 59% | 1014.9 hPa | - | - | - | - |
| 1787723563 | 22.78° C | 58% | 1014.7 hPa | - | - | - | - |
| 1787722941 | 22.78° C | 59% | 1014.6 hPa | - | - | - | - |
| 1787722337 | 22.78° C | 59% | 1014.6 hPa | - | - | - | - |
| 1787721744 | 22.78° C | 58% | 1014.8 hPa | - | - | - | - |
| 1787721136 | 22.78° C | 59% | 1014.8 hPa | - | - | - | - |
| 1787720535 | 22.78° C | 59% | 1014.6 hPa | - | - | - | - |
| 1787719934 | 22.78° C | 59% | 1014.6 hPa | - | - | - | - |
| 1787719339 | 22.78° C | 58% | 1014.7 hPa | - | - | - | - |
| 1787718733 | 22.78° C | 59% | 1014.8 hPa | - | - | - | - |
| 1787718133 | 22.78° C | 58% | 1014.9 hPa | - | - | - | - |
| 1787717532 | 22.78° C | 59% | 1015.1 hPa | - | - | - | - |
| 1787716932 | 22.78° C | 59% | 1015.2 hPa | - | - | - | - |
| 1787716332 | 22.78° C | 59% | 1015.4 hPa | - | - | - | - |
| 1787715732 | 22.78° C | 60% | 1015.5 hPa | - | - | - | - |
| 1787715135 | 22.78° C | 59% | 1015.5 hPa | - | - | - | - |
| 1787714535 | 22.78° C | 59% | 1015.4 hPa | - | - | - | - |
| 1787713932 | 22.78° C | 60% | 1015.6 hPa | - | - | - | - |
* Rain since midnight (hover to see other rain measurements)
** Current wind speed in m/s (hover to see current wind gust speed)